Location: *
(49.5667°N, 1.3667°W)
Time: 20:37:20
(UTC+00:00)

BREEZE M DEB (TANK) - Pass Details

Date: 20 September 2019
Orbit: 281 x 14544 km, 49.5° (Epoch: 20 October)

Event Time Altitude Azimuth Distance (km) Brightness Sun altitude
Rises 20:27:15 0° 276° (W) 2,060 6.4 -22.2°
Reaches altitude 10° 20:28:34 10° 276° (W) 1,396 5.3 -22.4°
Maximum altitude 20:31:11 85° 189° (S) 583 2.3 -22.8°
Enters shadow 20:31:19 82° 132° (SE) 601 2.3 -22.8°
